Torna al catalogo

SL-8 R/B

AttivoLEO
NORAD 13028·ROCKET BODY·🇷🇺 Russia

Lanciato Jan 7, 1982 da Plesetsk Cosmodrome

Loading…

Prossimi Passaggi (prossime 24 ore)

TLE

AggiornatoSource: Space-Track

Epoca: Sep 14, 2026, 08:06 UTC

1 13028U 82001B   26257.33789088  .00000148  00000-0  55269-4 0  9997
2 13028  74.0386 284.6788 0020418 254.1618 105.7286 14.39954589342420

Traccia SL-8 R/B in tempo reale con AllMySat

Download on the App Store